FW6482 Weather Reports


Display with metric or nautical units.
time (UTC)temp
F
wind
direction
speed
MPH
gust
MPH
rain 1hr
in
rain 24hr
in
rain mn
in
humidity
%
barometer
mb
20260905201504 60 225 0.0 1.0 0.00 0.05 0.01 72 1023.3
20260905200004 61 225 0.0 2.0 0.00 0.05 0.01 71 1023.1
20260905194501 61 225 0.0 3.0 0.00 0.05 0.01 70 1023.1
20260905193059 62 225 0.0 2.0 0.00 0.05 0.01 69 1022.9
20260905191559 63 219 0.0 1.0 0.00 0.05 0.01 68 1022.8
20260905190120 63 219 0.0 1.0 0.00 0.05 0.01 66 1022.6
20260905184613 64 219 0.0 3.0 0.00 0.06 0.01 64 1022.5
20260905183055 65 208 1.0 3.0 0.00 0.06 0.01 63 1022.4
20260905181553 66 208 1.0 3.0 0.00 0.06 0.01 62 1022.2
20260905180051 66 208 0.0 3.0 0.00 0.06 0.01 61 1022.0
20260905174556 67 173 1.0 5.0 0.00 0.23 0.01 61 1021.8
20260905173048 68 169 1.0 5.0 0.00 0.23 0.01 58 1021.6
20260905171547 70 219 2.0 5.0 0.00 0.23 0.01 57 1021.5
20260905170045 71 227 1.0 5.0 0.00 0.23 0.01 55 1021.4
20260905164543 72 261 1.0 8.0 0.00 0.23 0.01 53 1021.3
20260905163042 73 227 6.0 20.0 0.00 0.23 0.01 51 1021.1
20260905161541 73 242 2.0 12.0 0.00 0.23 0.01 52 1021.0
20260905160040 74 238 5.0 13.0 0.00 0.23 0.01 48 1020.9
20260905154539 75 257 7.0 15.0 0.00 0.23 0.01 47 1020.8
20260905153038 75 338 3.0 8.0 0.00 0.23 0.01 48 1020.6
20260905151537 75 215 2.0 17.0 0.00 0.23 0.01 48 1020.6
20260905150036 74 271 6.0 11.0 0.00 0.23 0.01 47 1020.5
20260905144541 74 230 5.0 13.0 0.00 0.23 0.01 47 1020.4
20260905143035 75 249 6.0 14.0 0.00 0.23 0.01 47 1020.4
20260905141541 76 236 6.0 14.0 0.00 0.23 0.01 47 1020.3
20260905140034 74 234 3.0 12.0 0.00 0.23 0.01 49 1020.4
20260905134534 76 244 8.0 17.0 0.00 0.23 0.01 47 1020.4
20260905133030 76 234 6.0 17.0 0.00 0.23 0.01 48 1020.3
20260905131543 74 206 5.0 18.0 0.00 0.23 0.01 50 1020.3
20260905130025 75 277 7.0 12.0 0.00 0.23 0.01 50 1020.3
20260905124536 74 227 7.0 14.0 0.00 0.23 0.01 52 1020.2
20260905123020 72 261 4.0 12.0 0.00 0.23 0.01 57 1020.1
20260905121524 71 221 7.0 14.0 0.00 0.23 0.01 54 1020.0
20260905120017 72 192 2.0 13.0 0.00 0.23 0.01 54 1019.8
20260905114534 73 242 6.0 13.0 0.00 0.23 0.01 54 1019.9
20260905113014 73 240 7.0 15.0 0.00 0.23 0.01 54 1019.8
20260905111516 72 236 4.0 14.0 0.00 0.23 0.01 55 1019.7
20260905110010 72 224 5.0 11.0 0.00 0.23 0.01 57 1019.7
20260905104506 71 251 4.0 14.0 0.00 0.23 0.01 59 1019.6
20260905103014 70 207 5.0 13.0 0.00 0.23 0.01 62 1019.6
20260905101629 69 221 3.0 18.0 0.00 0.23 0.01 66 1019.6
20260905100058 68 220 2.0 8.0 0.00 0.23 0.01 68 1019.6
20260905094555 68 271 8.0 15.0 0.00 0.23 0.01 66 1019.4
20260905093052 67 301 5.0 19.0 0.00 0.23 0.01 71 1019.4
20260905091549 65 250 4.0 10.0 0.00 0.23 0.01 74 1019.3
20260905090045 65 223 5.0 14.0 0.00 0.23 0.01 74 1019.1
20260905084600 64 238 6.0 14.0 0.00 0.23 0.01 77 1018.9
20260905083040 65 239 4.0 12.0 0.00 0.23 0.01 80 1018.8
20260905081537 63 295 3.0 12.0 0.00 0.23 0.01 85 1018.7
20260905080033 62 246 5.0 13.0 0.00 0.23 0.01 90 1018.5
20260905074531 61 251 4.0 11.0 0.00 0.23 0.01 93 1018.3
20260905073033 60 267 3.0 10.0 0.00 0.23 0.01 95 1018.1
20260905071526 59 251 3.0 10.0 0.00 0.23 0.01 96 1017.8
20260905070022 58 221 2.0 5.0 0.00 0.23 0.01 96 1017.7
20260905064528 57 238 1.0 3.0 0.00 0.23 0.01 96 1017.6
20260905063019 57 238 0.0 3.0 0.00 0.23 0.01 95 1017.5
20260905061518 56 238 1.0 3.0 0.00 0.23 0.01 95 1017.3
20260905060016 56 238 0.0 0.0 0.00 0.23 0.01 95 1017.2
20260905054514 55 238 0.0 1.0 0.00 0.23 0.01 95 1017.1
20260905053011 55 238 0.0 2.0 0.00 0.23 0.01 95 1016.8
20260905051520 55 238 1.0 2.0 0.00 0.23 0.01 95 1016.7
20260905050006 55 238 0.0 2.0 0.00 0.23 0.01 95 1016.4
20260905044503 55 238 1.0 4.0 0.00 0.23 0.01 95 1016.3
20260905043105 56 238 1.0 3.0 0.00 0.23 0.01 94 1016.1
20260905041558 56 238 0.0 4.0 0.00 0.23 0.01 94 1015.7
20260905040057 56 239 1.0 5.0 0.00 0.23 0.01 94 1015.5
20260905034556 56 239 1.0 4.0 0.01 0.23 0.01 94 1015.5
20260905033100 56 239 1.0 4.0 0.01 0.23 0.01 94 1015.6
20260905031558 57 239 0.0 3.0 0.01 0.23 0.01 93 1015.6
20260905030059 57 239 0.0 0.0 0.01 0.23 0.01 94 1015.6
20260905024620 58 239 0.0 2.0 0.00 0.22 0.00 94 1015.4
20260905023050 58 239 0.0 2.0 0.00 0.22 0.00 94 1015.3
20260905021545 59 239 0.0 2.0 0.00 0.22 0.00 94 1015.2
20260905020049 59 239 0.0 3.0 0.00 0.22 0.00 94 1015.3
20260905014544 59 239 1.0 3.0 0.00 0.22 0.00 94 1015.1
20260905013038 60 239 0.0 3.0 0.00 0.22 0.00 94 1014.9
20260905011541 60 239 0.0 2.0 0.00 0.22 0.00 94 1015.0
20260905010033 61 239 0.0 0.0 0.00 0.22 0.00 94 1014.9
20260905004533 61 239 0.0 3.0 0.00 0.22 0.00 94 1014.7
20260905003032 61 239 0.0 1.0 0.00 0.22 0.00 94 1014.7
20260905001530 61 239 0.0 2.0 0.00 0.22 0.00 94 1014.7
20260905000029 62 239 0.0 3.0 0.00 0.22 0.00 94 1014.7
20260904234538 62 239 0.0 2.0 0.00 0.22 0.00 94 1014.7
20260904233036 62 239 0.0 2.0 0.00 0.22 0.00 94 1014.7
20260904231525 62 239 0.0 0.0 0.00 0.22 0.00 94 1014.4
20260904230030 62 239 0.0 2.0 0.00 0.22 0.00 94 1014.2
20260904224536 62 239 0.0 2.0 0.02 0.22 0.00 94 1014.1
20260904223021 62 239 0.0 1.0 0.02 0.22 0.00 94 1014.0
20260904221520 62 239 0.0 0.0 0.04 0.22 0.00 94 1014.0
20260904220020 62 239 0.0 1.0 0.04 0.22 0.00 94 1013.9
20260904214535 63 239 0.0 2.0 0.02 0.20 0.20 94 1014.0
20260904213018 63 239 2.0 8.0 0.02 0.20 0.20 94 1013.9
20260904211517 63 327 0.0 3.0 0.00 0.18 0.18 94 1013.6
20260904210017 63 350 1.0 3.0 0.00 0.18 0.18 94 1013.4
20260904204515 63 355 0.0 2.0 0.00 0.18 0.18 94 1013.5
20260904203014 63 355 0.0 2.0 0.00 0.18 0.18 93 1013.2